Regional Weather Roundup
Issued by NWS

Home | Current Version | Previous Version | Graphics & Text | Print | Product List | Glossary On
Versions: 1 2 3 4 5 6 7 8 9 10 11 12 13 14 15 16 17 18 19 20 21 22 23 24 25 26 27 28 29 30 31 32 33 34 35 36 37 38 39 40 41 42 43 44 45 46 47 48 49 50
000
ASUS45 KTFX 221119
RWRMT
MONTANA HOURLY WEATHER ROUNDUP
NATIONAL WEATHER SERVICE GREAT FALLS MT
419 AM MST MON DEC 22 2014

NOTE: "FAIR" INDICATES FEW OR NO CLOUDS BELOW 12000 FEET WITH NO
SIGNIFICANT WEATHER AND/OR OBSTRUCTIONS TO VISIBILITY.

* THESE STATIONS ARE NOT UNDER NWS QUALITY CONTROL. THEY DO NOT
   REPORT WEATHER SUCH AS PRECIPITATION OR FOG.

MTZ001>007-043-221200-
WEST OF THE DIVIDE
CITY           SKY/WX    TMP DP  RH WIND       PRES   REMARKS
KALISPELL      PTCLDY    30  28  92 SW5       29.86S WCI  25
MISSOULA       CLOUDY    36  28  73 NW5       29.93S WCI  32
BUTTE          LGT SNOW  28  27  96 NW17G29   29.85R VSB 3/4  WCI  16
MULLAN PASS    CLOUDY    25  25 100 VRB6      29.88S WCI  18
* ESSEX        N/A       32  31  96 NE2G8      N/A
* EUREKA APT   PTCLDY    36  28  73 E5        29.87R WCI  32
* HAMILTON APT MOCLDY    39  25  57 W8        29.94R WCI  33
* LIBBY APT    PTCLDY    36  27  70 CALM      29.90R
* LINCOLN      N/A       31  30  96 S3G9       N/A
* LOOKOUT PASS N/A       32  28  85 NE3G11     N/A
* POLSON       N/A       36  26  67 NW2G7      N/A
* RONAN APT    PTCLDY    37  28  70 N/A        N/A
* SEELEY LAKE  N/A       33  28  82 NW3G10     N/A
* THOMP F APT  CLOUDY    25  21  85 N3G9       N/A
* YAAK HILL    N/A       31  28  89 E1         N/A
$$

MTZ008-052>055-221200-
SOUTHWEST MONTANA
CITY           SKY/WX    TMP DP  RH WIND       PRES   REMARKS
BOZEMAN        CLOUDY    34  28  79 NW6       29.83R WCI  29
DILLON         CLOUDY    34  25  70 SW12      29.85R WCI  25
* W YELLOWSTON CLOUDY    26  22  85 SW4G11     N/A
* THREE FORKS  CLOUDY    36  36 100 W15G20     N/A   WCI  27
* BOULDER HILL N/A       31  21  66 NE5G26     N/A   WCI  26
* MONIDA PASS  N/A       27  20  75 W6         N/A   WCI  20
* RAYNOLDS PAS N/A       26   6  42 SE6        N/A   WCI  19
* WHITEHALL    N/A       33  30  89 SW15G28    N/A   WCI  23
* WISE RIVER   N/A       31  25  78 NW11G18    N/A   WCI  22
$$

MTZ009>010-012-014-046-048-049-054-221200-
EAST SLOPES AND CENTRAL MONTANA
CITY           SKY/WX    TMP DP  RH WIND       PRES   REMARKS
CUT BANK       PTCLDY    32  21  64 W17       29.72R WCI  21
GREAT FALLS    CLOUDY    34  27  76 SW7       29.75R WCI  28
HELENA         MOCLDY    37  27  67 W9G25     29.80R WCI  30
MALMSTROM AFB  CLOUDY    36  28  73 W14       29.77R WCI  27
* CONRAD       PTCLDY    37  21  52 W18G24     N/A   WCI  27
* DEARBORN     N/A       30  25  82 S2         N/A
* EAST GLACIER N/A       32  17  54 NE12G20    N/A   WCI  23
* MONARCH      N/A       31  17  56 W16        N/A   WCI  20
* PENDROY      N/A       33  21  61 NW15       N/A   WCI  23
* ROGERS PASS  N/A       29  25  85 SE12G25    N/A   WCI  19
* SWEET GRASS  N/A       29  18  63 NW7        N/A   WCI  22
* WHITE SULPH  N/A       32  23  69 NW10       N/A   WCI  24
$$

MTZ011-013-016-021-035-040-045-047-050-051-221200-
NORTH CENTRAL MONTANA
CITY           SKY/WX    TMP DP  RH WIND       PRES   REMARKS
HAVRE          PTCLDY    28  25  89 SW10      29.71R WCI  19
LEWISTOWN      CLOUDY    36  23  59 W12       29.71R WCI  28
* N BAR RANCH  CLOUDY    32  23  69 NW17G24   29.68S WCI  21
* CHINOOK      MOCLDY    34  27  76 W12       29.69R WCI  25
* CHESTER      N/A       28  20  72 N/A        N/A
* DENTON       N/A       35  22  59 W11        N/A   WCI  27
* GEYSER       N/A       34  21  59 W13G20     N/A   WCI  25
* JUDITH GAP   N/A       32  17  54 NW12G17    N/A   WCI  23
* LOMA         N/A       26  22  85 W2         N/A
$$

MTZ017>020-022>027-061-062-221200-
NORTHEAST MONTANA
CITY           SKY/WX    TMP DP  RH WIND       PRES   REMARKS
GLASGOW        CLOUDY    32  27  82 NW17G24   29.58R WCI  21
GLENDIVE       CLOUDY    34  28  79 W20G33    29.53R WCI  23
JORDAN         PTCLDY    34  28  79 W13       29.61R WCI  25
SIDNEY         CLOUDY    28  25  89 W16G21    29.53R VSB 2 1/2 WCI  16
WOLF POINT     LGT SNOW  30  27  89 NW18G28   29.57R WCI  18
* BEAVER HILL  N/A       32  31  96 W20G31     N/A   WCI  20
* CIRCLE       N/A       34  30  85 W23        N/A   WCI  22
* LINDSAY DVD  N/A       31  28  89 W27G39     N/A   WCI  17
* PLENTYWOOD A CLOUDY    25  25 100 NW16      29.48R VSB 1/2  WCI  12
* POPLAR APT   CLOUDY    28  23  81 NW18G24   29.54R WCI  15
* SACO         N/A       32  28  85 NW8G14     N/A   WCI  25
$$

MTZ028>042-056>058-221200-
SOUTHCENTRAL AND SOUTHEAST MONTANA
CITY           SKY/WX    TMP DP  RH WIND       PRES   REMARKS
BAKER          CLOUDY    36 N/A N/A NW23G35   29.52R WCI  24
BILLINGS       PTCLDY    36  19  50 W14       29.72R WCI  27
LIVINGSTON     CLOUDY    34  28  79 W18       29.75R WCI  23
MILES CITY     PTCLDY    36  27  70 NW21      29.59R WCI  25
* FORSYTH APT  MOCLDY    37  27  67 W15G21    29.64R WCI  28
* LAUREL APT   PTCLDY    37  16  42 W8         N/A   WCI  31
* ROUNDUP APT  PTCLDY    32  19  59 N/A        N/A
* ALZADA       N/A       35  28  76 W12G18     N/A   WCI  27
* HYSHAM       N/A       34  20  57 W6         N/A   WCI  29
* LAME DEER    N/A       34  22  61 W16G23     N/A   WCI  24
* REED POINT   N/A       40  22  49 W14G24     N/A   WCI  32
* ROSCOE HILL  N/A       33  16  50 W8G17      N/A   WCI  26
$$

REGIONAL REPORTS...DAKOTAS
CITY           SKY/WX    TMP DP  RH WIND       PRES   REMARKS
WILLISTON      LGT SNOW  30  27  89 NW15      29.47R WCI  19
DICKINSON      LGT SNOW  34  30  85 NW23G28   29.42R VSB 1 3/4 WCI  22
BEACH          LGT RAIN  32  32 100 NW25G35   29.49R WCI  19
CROSBY         FOG       28  28 100 N8        29.46R VSB M1/4 WCI  20
TIOGA          CLOUDY    27  27 100 W6        29.45R WCI  20
WATFORD CITY   LGT SNOW  30  30 100 W16G23    29.44R WCI  19
BISMARCK       FOG       28  28 100 SE5       29.45S VSB M1/4 WCI  22
GRAND FORKS    FOG       34  34 100 E6        29.52S WCI  29
FARGO          FOG       37  36  96 SE14      29.49F WCI  28
BUFFALO SD     CLOUDY    37  28  70 W24       29.43S WCI  26
RAPID CITY     MOCLDY    41  25  53 NW21G31   29.52R
$$

REGIONAL REPORTS...WYOMING/IDAHO/WASHINGTON
CITY           SKY/WX    TMP DP  RH WIND       PRES   REMARKS
GILLETTE       CLOUDY    32  25  75 NW16      29.66R WCI  21
SHERIDAN       MOCLDY    37  19  48 NW18      29.68F WCI  27
CODY           CLOUDY    34  21  59 NW3       29.72F
YELLOWSTONE LA CLOUDY    21  18  88 VRB7G18   29.80S WCI  12
SALMON         CLOUDY    34  30  85 S5        29.96R WCI  29
MULLAN PASS    CLOUDY    25  25 100 VRB6      29.88S WCI  18
SAND POINT     CLEAR     34  34 100 S7        29.96R WCI  28
SPOKANE        CLEAR     36  30  79 SW14      29.99R WCI  27
$$

REGIONAL REPORTS...ALBERTA
CITY           SKY/WX    TMP DP  RH WIND       PRES   REMARKS
CALGARY        PTCLDY    19  16  88 N3        29.70R
LETHBRIDGE     CLEAR     30  23  75 W15G22    29.72R WCI  19
MEDICINE HAT   CLOUDY    34  30  85 W10       29.70R WCI  26
EDMONTON       PTCLDY    27  23  85 W8        29.67R WCI  19
WATERTON GATE  N/A       36  18  48 W17G30     N/A   WCI  26
CARDSTON       N/A       34  21  59 W14G23     N/A   WCI  24
MILK RIVER     N/A       28  19  69 W15        N/A   WCI  16
$$

REGIONAL REPORTS...SASKATCHEWAN
CITY           SKY/WX    TMP DP  RH WIND       PRES   REMARKS
SWIFT CURRENT  LGT SNOW  19  18  96 NW17G24   29.59R WCI   4
REGINA         FOG       23  23 100 N10       29.54R VSB 1/2  WCI  13
VAL MARIE      N/A       30  27  89 NW18       N/A   WCI  18
ASSINIBOIA     N/A       23  21  92 NW16       N/A   WCI  10
CORONACH       N/A       23  21  92 NW18       N/A   WCI   9

$$



USA.gov is the U.S. government's official web portal to all federal, state and local government web resources and services.